| time (UTC) | temp C | wind direction | speed KPH | gust KPH | rain 1hr cm | rain 24hr cm | rain mn cm | humidity % | barometer mb |
| 20260510071813 | 9 | 162 | 0.0 | 0.0 | 0.00 | 0.28 | 0.28 | 99 | 1007.6 |
| 20260510071309 | 9 | 163 | 0.0 | 0.0 | 0.00 | 0.28 | 0.28 | 99 | 1007.5 |
| 20260510070808 | 9 | 163 | 0.0 | 0.0 | 0.00 | 0.28 | 0.28 | 99 | 1007.7 |
| 20260510070304 | 9 | 163 | 0.0 | 0.0 | 0.00 | 0.28 | 0.28 | 99 | 1007.7 |
| 20260510065759 | 9 | 163 | 0.0 | 0.0 | 0.00 | 0.28 | 0.28 | 99 | 1007.8 |
| 20260510065256 | 9 | 164 | 0.0 | 0.0 | 0.00 | 0.28 | 0.28 | 99 | 1007.8 |
| 20260510064753 | 10 | 162 | 0.0 | 0.0 | 0.00 | 0.28 | 0.28 | 99 | 1007.8 |
| 20260510064251 | 10 | 163 | 0.0 | 0.0 | 0.00 | 0.28 | 0.28 | 99 | 1007.6 |
| 20260510063746 | 10 | 149 | 0.0 | 0.0 | 0.00 | 0.28 | 0.28 | 99 | 1007.7 |
| 20260510063242 | 10 | 153 | 0.0 | 0.0 | 0.00 | 0.28 | 0.28 | 99 | 1007.5 |
| 20260510062739 | 10 | 153 | 0.0 | 0.0 | 0.00 | 0.28 | 0.28 | 99 | 1007.6 |
| 20260510062235 | 10 | 168 | 1.6 | 1.6 | 0.00 | 0.28 | 0.28 | 99 | 1007.9 |
| 20260510061730 | 10 | 152 | 0.0 | 0.0 | 0.00 | 0.28 | 0.28 | 99 | 1008.0 |
| 20260510061228 | 10 | 153 | 0.0 | 0.0 | 0.00 | 0.28 | 0.28 | 99 | 1008.2 |
| 20260510060724 | 10 | 152 | 0.0 | 0.0 | 0.00 | 0.28 | 0.28 | 99 | 1008.2 |
| 20260510060221 | 10 | 157 | 0.0 | 0.0 | 0.00 | 0.28 | 0.28 | 99 | 1007.9 |
| 20260510055717 | 10 | 156 | 0.0 | 0.0 | 0.00 | 0.28 | 0.28 | 99 | 1007.8 |
| 20260510055216 | 10 | 147 | 0.0 | 0.0 | 0.00 | 0.28 | 0.28 | 99 | 1007.7 |
| 20260510054715 | 10 | 148 | 0.0 | 1.6 | 0.00 | 0.28 | 0.28 | 98 | 1007.9 |
| 20260510054211 | 10 | 147 | 1.6 | 1.6 | 0.00 | 0.28 | 0.28 | 98 | 1008.0 |
| 20260510053706 | 10 | 156 | 1.6 | 1.6 | 0.00 | 0.28 | 0.28 | 98 | 1007.8 |
| 20260510053203 | 10 | 154 | 0.0 | 0.0 | 0.00 | 0.28 | 0.28 | 98 | 1007.8 |
| 20260510052658 | 10 | 154 | 0.0 | 0.0 | 0.00 | 0.28 | 0.28 | 98 | 1008.0 |
| 20260510052155 | 10 | 153 | 0.0 | 0.0 | 0.00 | 0.28 | 0.28 | 98 | 1008.0 |
| 20260510051650 | 11 | 159 | 0.0 | 1.6 | 0.00 | 0.28 | 0.28 | 98 | 1007.8 |
| 20260510051147 | 11 | 133 | 3.2 | 3.2 | 0.18 | 0.28 | 0.28 | 98 | 1008.0 |
| 20260510050645 | 11 | 120 | 3.2 | 3.2 | 0.48 | 0.28 | 0.28 | 97 | 1008.2 |
| 20260510050142 | 11 | 143 | 0.0 | 0.0 | 0.79 | 0.28 | 0.28 | 97 | 1008.4 |
| 20260510045638 | 11 | 158 | 0.0 | 0.0 | 0.61 | 0.20 | 0.20 | 97 | 1008.7 |
| 20260510045135 | 11 | 153 | 0.0 | 0.0 | 0.30 | 0.13 | 0.13 | 96 | 1008.6 |
| 20260510044631 | 11 | 154 | 0.0 | 0.0 | 0.30 | 0.10 | 0.10 | 95 | 1008.7 |
| 20260510044129 | 11 | 150 | 0.0 | 0.0 | 0.13 | 0.08 | 0.08 | 95 | 1008.8 |
| 20260510043624 | 11 | 150 | 0.0 | 0.0 | 0.18 | 0.05 | 0.05 | 94 | 1008.8 |
| 20260510043121 | 11 | 150 | 0.0 | 0.0 | 0.18 | 0.05 | 0.05 | 93 | 1008.8 |
| 20260510042619 | 11 | 150 | 0.0 | 0.0 | 0.00 | 0.03 | 0.03 | 92 | 1008.7 |
| 20260510042114 | 11 | 163 | 0.0 | 0.0 | 0.13 | 0.03 | 0.03 | 91 | 1008.7 |
| 20260510041612 | 11 | 154 | 1.6 | 1.6 | 0.13 | 0.03 | 0.03 | 90 | 1008.6 |
| 20260510041109 | 12 | 202 | 3.2 | 4.8 | 0.00 | 0.00 | 0.00 | 89 | 1008.4 |
| 20260510040606 | 12 | 163 | 1.6 | 3.2 | 0.00 | 0.00 | 0.00 | 89 | 1008.4 |
| 20260510035558 | 12 | 213 | 3.2 | 3.2 | 0.00 | 0.03 | 0.03 | 87 | 1008.3 |
| 20260510035057 | 12 | 237 | 8.0 | 9.7 | 0.00 | 0.03 | 0.03 | 87 | 1008.2 |
| 20260510034556 | 12 | 296 | 6.4 | 6.4 | 0.00 | 0.03 | 0.03 | 88 | 1008.2 |
| 20260510034053 | 11 | 234 | 3.2 | 4.8 | 0.00 | 0.03 | 0.03 | 92 | 1008.3 |
| 20260510033548 | 11 | 182 | 1.6 | 1.6 | 0.00 | 0.03 | 0.03 | 95 | 1007.9 |
| 20260510033046 | 10 | 204 | 3.2 | 3.2 | 0.00 | 0.03 | 0.03 | 95 | 1007.9 |
| 20260510032543 | 10 | 165 | 1.6 | 1.6 | 0.00 | 0.03 | 0.03 | 95 | 1007.7 |
| 20260510032038 | 10 | 171 | 0.0 | 0.0 | 0.00 | 0.03 | 0.03 | 95 | 1007.4 |
| 20260510031533 | 10 | 139 | 3.2 | 3.2 | 0.00 | 0.03 | 0.03 | 95 | 1007.3 |
| 20260510031029 | 10 | 155 | 0.0 | 0.0 | 0.00 | 0.03 | 0.03 | 95 | 1007.3 |
| 20260510030525 | 10 | 157 | 0.0 | 0.0 | 0.00 | 0.03 | 0.03 | 95 | 1007.4 |
| 20260510030022 | 10 | 152 | 0.0 | 1.6 | 0.00 | 0.03 | 0.03 | 95 | 1007.1 |
| 20260510025519 | 10 | 158 | 1.6 | 1.6 | 0.00 | 0.03 | 0.03 | 95 | 1007.3 |
| 20260510025017 | 10 | 152 | 0.0 | 0.0 | 0.00 | 0.03 | 0.03 | 95 | 1007.4 |
| 20260510024513 | 10 | 152 | 0.0 | 1.6 | 0.00 | 0.03 | 0.03 | 95 | 1007.2 |
| 20260510024010 | 10 | 144 | 0.0 | 1.6 | 0.00 | 0.03 | 0.03 | 95 | 1007.4 |
| 20260510023506 | 10 | 153 | 1.6 | 1.6 | 0.00 | 0.03 | 0.03 | 95 | 1007.2 |
| 20260510023004 | 10 | 144 | 3.2 | 3.2 | 0.00 | 0.03 | 0.03 | 95 | 1007.0 |
| 20260510022502 | 10 | 151 | 1.6 | 3.2 | 0.00 | 0.03 | 0.03 | 95 | 1007.1 |
| 20260510022002 | 10 | 125 | 3.2 | 4.8 | 0.00 | 0.03 | 0.03 | 95 | 1006.8 |
| 20260510021459 | 10 | 146 | 1.6 | 1.6 | 0.00 | 0.03 | 0.03 | 95 | 1006.8 |
| 20260510020956 | 10 | 145 | 1.6 | 1.6 | 0.00 | 0.03 | 0.03 | 95 | 1006.9 |
| 20260510020451 | 10 | 139 | 1.6 | 3.2 | 0.00 | 0.03 | 0.03 | 95 | 1006.9 |
| 20260510015946 | 10 | 117 | 3.2 | 3.2 | 0.00 | 0.03 | 0.03 | 95 | 1007.1 |
| 20260510015443 | 10 | 117 | 3.2 | 3.2 | 0.00 | 0.03 | 0.03 | 95 | 1006.8 |
| 20260510014938 | 10 | 150 | 1.6 | 1.6 | 0.00 | 0.03 | 0.03 | 95 | 1007.1 |
| 20260510014435 | 10 | 155 | 1.6 | 1.6 | 0.00 | 0.03 | 0.03 | 95 | 1007.1 |
| 20260510013931 | 10 | 143 | 1.6 | 1.6 | 0.00 | 0.03 | 0.03 | 95 | 1007.3 |
| 20260510013426 | 10 | 134 | 1.6 | 1.6 | 0.00 | 0.03 | 0.03 | 94 | 1006.9 |
| 20260510012922 | 10 | 137 | 3.2 | 3.2 | 0.00 | 0.03 | 0.03 | 94 | 1006.7 |
| 20260510012418 | 10 | 127 | 3.2 | 3.2 | 0.00 | 0.03 | 0.03 | 94 | 1007.0 |
| 20260510011912 | 11 | 131 | 3.2 | 3.2 | 0.00 | 0.03 | 0.03 | 94 | 1006.8 |
| 20260510011407 | 10 | 149 | 3.2 | 3.2 | 0.00 | 0.03 | 0.03 | 94 | 1007.0 |
| 20260510010904 | 11 | 150 | 1.6 | 1.6 | 0.00 | 0.03 | 0.03 | 94 | 1006.7 |
| 20260510010401 | 11 | 144 | 0.0 | 0.0 | 0.00 | 0.03 | 0.03 | 94 | 1006.6 |
| 20260510005858 | 11 | 143 | 1.6 | 3.2 | 0.00 | 0.03 | 0.03 | 93 | 1006.7 |
| 20260510005354 | 11 | 135 | 3.2 | 3.2 | 0.00 | 0.03 | 0.03 | 93 | 1006.9 |
| 20260510004852 | 11 | 145 | 1.6 | 1.6 | 0.00 | 0.03 | 0.03 | 93 | 1006.9 |
| 20260510004349 | 11 | 155 | 1.6 | 3.2 | 0.00 | 0.03 | 0.03 | 93 | 1006.8 |
| 20260510003847 | 11 | 131 | 3.2 | 3.2 | 0.00 | 0.03 | 0.03 | 92 | 1006.7 |
| 20260510003343 | 11 | 142 | 0.0 | 1.6 | 0.00 | 0.03 | 0.03 | 92 | 1006.4 |
| 20260510002842 | 11 | 139 | 1.6 | 1.6 | 0.00 | 0.03 | 0.03 | 92 | 1006.3 |
| 20260510002339 | 11 | 157 | 0.0 | 0.0 | 0.00 | 0.03 | 0.03 | 91 | 1006.7 |
| 20260510001836 | 12 | 151 | 1.6 | 1.6 | 0.00 | 0.03 | 0.03 | 90 | 1006.7 |
| 20260510001334 | 12 | 162 | 1.6 | 1.6 | 0.00 | 0.03 | 0.03 | 90 | 1006.6 |
| 20260510000830 | 12 | 162 | 1.6 | 1.6 | 0.00 | 0.03 | 0.03 | 89 | 1006.4 |
| 20260510000328 | 12 | 149 | 1.6 | 1.6 | 0.00 | 0.03 | 0.03 | 88 | 1006.4 |
| 20260509235824 | 12 | 158 | 0.0 | 0.0 | 0.00 | 0.03 | 0.03 | 88 | 1006.1 |
| 20260509235321 | 12 | 147 | 0.0 | 0.0 | 0.00 | 0.03 | 0.03 | 86 | 1006.1 |
| 20260509234817 | 13 | 133 | 1.6 | 1.6 | 0.00 | 0.03 | 0.03 | 82 | 1006.5 |
| 20260509234313 | 13 | 144 | 4.8 | 4.8 | 0.00 | 0.03 | 0.03 | 81 | 1006.4 |
| 20260509233812 | 13 | 158 | 1.6 | 1.6 | 0.00 | 0.03 | 0.03 | 81 | 1006.4 |
| 20260509233309 | 13 | 155 | 0.0 | 0.0 | 0.00 | 0.03 | 0.03 | 81 | 1006.4 |
| 20260509232804 | 13 | 157 | 0.0 | 0.0 | 0.00 | 0.03 | 0.03 | 80 | 1006.6 |
| 20260509232306 | 13 | 146 | 0.0 | 0.0 | 0.00 | 0.03 | 0.03 | 80 | 1006.3 |
| 20260509231759 | 13 | 138 | 1.6 | 1.6 | 0.00 | 0.03 | 0.03 | 80 | 1006.4 |
| 20260509231255 | 13 | 153 | 1.6 | 1.6 | 0.00 | 0.03 | 0.03 | 81 | 1006.5 |
| 20260509230754 | 13 | 131 | 3.2 | 4.8 | 0.00 | 0.03 | 0.03 | 81 | 1006.5 |
| 20260509230250 | 14 | 168 | 0.0 | 0.0 | 0.00 | 0.03 | 0.03 | 80 | 1006.4 |
| 20260509225745 | 15 | 183 | 1.6 | 1.6 | 0.00 | 0.03 | 0.03 | 78 | 1006.3 |
| 20260509225242 | 14 | 158 | 1.6 | 1.6 | 0.00 | 0.03 | 0.03 | 79 | 1006.4 |
| 20260509224737 | 13 | 156 | 0.0 | 0.0 | 0.00 | 0.03 | 0.03 | 81 | 1006.5 |
| 20260509224235 | 13 | 162 | 1.6 | 1.6 | 0.00 | 0.03 | 0.03 | 82 | 1006.4 |
| 20260509223731 | 13 | 143 | 1.6 | 1.6 | 0.00 | 0.03 | 0.03 | 82 | 1006.6 |
| 20260509223229 | 13 | 144 | 1.6 | 1.6 | 0.00 | 0.03 | 0.03 | 81 | 1006.5 |
| 20260509222726 | 13 | 165 | 1.6 | 1.6 | 0.00 | 0.03 | 0.03 | 82 | 1006.6 |
| 20260509222221 | 13 | 151 | 1.6 | 1.6 | 0.00 | 0.03 | 0.03 | 82 | 1006.3 |
| 20260509221717 | 13 | 129 | 1.6 | 1.6 | 0.00 | 0.03 | 0.03 | 82 | 1006.3 |
| 20260509221213 | 13 | 136 | 1.6 | 1.6 | 0.00 | 0.03 | 0.03 | 83 | 1006.5 |
| 20260509220709 | 12 | 148 | 1.6 | 3.2 | 0.00 | 0.03 | 0.03 | 85 | 1006.2 |
| 20260509220206 | 12 | 141 | 1.6 | 1.6 | 0.00 | 0.03 | 0.03 | 88 | 1006.3 |
| 20260509215702 | 12 | 158 | 1.6 | 1.6 | 0.00 | 0.03 | 0.03 | 88 | 1006.4 |
| 20260509215158 | 12 | 149 | 0.0 | 0.0 | 0.00 | 0.03 | 0.03 | 88 | 1006.7 |
| 20260509214655 | 12 | 125 | 3.2 | 3.2 | 0.00 | 0.03 | 0.03 | 87 | 1006.5 |
| 20260509214152 | 12 | 154 | 0.0 | 0.0 | 0.00 | 0.03 | 0.03 | 86 | 1006.6 |
| 20260509213649 | 12 | 161 | 0.0 | 1.6 | 0.00 | 0.03 | 0.03 | 87 | 1006.4 |
| 20260509213145 | 12 | 146 | 1.6 | 1.6 | 0.00 | 0.03 | 0.03 | 88 | 1006.5 |
| 20260509212642 | 12 | 145 | 1.6 | 1.6 | 0.00 | 0.03 | 0.03 | 89 | 1006.6 |
| 20260509212139 | 12 | 155 | 3.2 | 3.2 | 0.00 | 0.03 | 0.03 | 89 | 1006.8 |
| 20260509211635 | 12 | 154 | 0.0 | 0.0 | 0.00 | 0.03 | 0.03 | 89 | 1006.6 |
| 20260509211132 | 12 | 151 | 1.6 | 1.6 | 0.00 | 0.03 | 0.03 | 89 | 1006.6 |
| 20260509210629 | 12 | 155 | 0.0 | 0.0 | 0.00 | 0.03 | 0.03 | 90 | 1006.9 |
| 20260509210126 | 11 | 130 | 3.2 | 3.2 | 0.00 | 0.03 | 0.03 | 90 | 1006.7 |
| 20260509205620 | 11 | 122 | 3.2 | 4.8 | 0.00 | 0.03 | 0.03 | 90 | 1006.8 |
| 20260509205115 | 11 | 119 | 3.2 | 3.2 | 0.00 | 0.03 | 0.03 | 90 | 1006.9 |
| 20260509204611 | 11 | 130 | 1.6 | 3.2 | 0.00 | 0.03 | 0.03 | 91 | 1007.0 |
| 20260509204108 | 11 | 126 | 1.6 | 1.6 | 0.00 | 0.03 | 0.03 | 90 | 1007.1 |
| 20260509203604 | 11 | 134 | 3.2 | 3.2 | 0.00 | 0.03 | 0.03 | 90 | 1007.1 |
| 20260509203103 | 11 | 115 | 3.2 | 3.2 | 0.00 | 0.03 | 0.03 | 90 | 1007.2 |
| 20260509202556 | 11 | 135 | 4.8 | 4.8 | 0.00 | 0.03 | 0.03 | 90 | 1007.1 |
| 20260509202047 | 11 | 128 | 4.8 | 4.8 | 0.00 | 0.03 | 0.03 | 90 | 1007.3 |
| 20260509201542 | 11 | 183 | 3.2 | 3.2 | 0.00 | 0.03 | 0.03 | 91 | 1007.4 |
| 20260509201040 | 11 | 131 | 1.6 | 3.2 | 0.00 | 0.03 | 0.03 | 91 | 1007.4 |
| 20260509200538 | 11 | 149 | 1.6 | 1.6 | 0.00 | 0.03 | 0.03 | 91 | 1007.4 |
| 20260509200035 | 11 | 129 | 1.6 | 1.6 | 0.00 | 0.03 | 0.03 | 91 | 1007.2 |
| 20260509195531 | 11 | 143 | 1.6 | 1.6 | 0.00 | 0.03 | 0.03 | 91 | 1007.5 |
| 20260509195026 | 10 | 169 | 0.0 | 1.6 | 0.00 | 0.03 | 0.03 | 91 | 1007.5 |
| 20260509194521 | 10 | 151 | 0.0 | 0.0 | 0.00 | 0.03 | 0.03 | 92 | 1007.6 |
| 20260509194018 | 10 | 140 | 1.6 | 3.2 | 0.00 | 0.03 | 0.03 | 92 | 1007.6 |
| 20260509193513 | 10 | 123 | 1.6 | 3.2 | 0.00 | 0.03 | 0.03 | 92 | 1007.5 |
| 20260509193010 | 10 | 138 | 3.2 | 3.2 | 0.00 | 0.03 | 0.03 | 92 | 1007.6 |
| 20260509192506 | 10 | 138 | 3.2 | 3.2 | 0.00 | 0.03 | 0.03 | 92 | 1007.7 |
| 20260509192001 | 10 | 143 | 6.4 | 9.7 | 0.00 | 0.03 | 0.03 | 92 | 1007.8 |
| 20260509191456 | 10 | 158 | 3.2 | 3.2 | 0.00 | 0.03 | 0.03 | 93 | 1007.8 |
| 20260509190952 | 10 | 129 | 1.6 | 1.6 | 0.00 | 0.03 | 0.03 | 93 | 1008.0 |
| 20260509190449 | 10 | 132 | 3.2 | 3.2 | 0.00 | 0.03 | 0.03 | 93 | 1007.9 |
| 20260509185947 | 10 | 127 | 3.2 | 3.2 | 0.00 | 0.03 | 0.03 | 93 | 1008.0 |
| 20260509185444 | 9 | 133 | 1.6 | 1.6 | 0.00 | 0.03 | 0.03 | 93 | 1008.0 |
| 20260509184941 | 9 | 137 | 3.2 | 3.2 | 0.00 | 0.03 | 0.03 | 93 | 1008.2 |
| 20260509184439 | 9 | 124 | 3.2 | 4.8 | 0.00 | 0.03 | 0.03 | 93 | 1008.3 |
| 20260509183935 | 9 | 132 | 4.8 | 4.8 | 0.00 | 0.03 | 0.03 | 93 | 1008.0 |
| 20260509183429 | 9 | 121 | 4.8 | 4.8 | 0.00 | 0.03 | 0.03 | 93 | 1008.3 |
| 20260509182926 | 9 | 124 | 4.8 | 4.8 | 0.00 | 0.03 | 0.03 | 93 | 1008.0 |
| 20260509182422 | 9 | 136 | 8.0 | 11.3 | 0.00 | 0.03 | 0.03 | 93 | 1008.2 |
| 20260509181920 | 9 | 148 | 3.2 | 3.2 | 0.00 | 0.03 | 0.03 | 93 | 1008.2 |
| 20260509181418 | 9 | 119 | 4.8 | 6.4 | 0.00 | 0.03 | 0.03 | 93 | 1008.4 |
| 20260509180915 | 9 | 153 | 1.6 | 1.6 | 0.00 | 0.03 | 0.03 | 93 | 1007.9 |
| 20260509180410 | 9 | 162 | 4.8 | 4.8 | 0.00 | 0.03 | 0.03 | 93 | 1008.0 |
| 20260509175907 | 9 | 134 | 3.2 | 3.2 | 0.00 | 0.03 | 0.03 | 93 | 1008.3 |
| 20260509175403 | 8 | 132 | 3.2 | 6.4 | 0.00 | 0.03 | 0.03 | 94 | 1008.2 |
| 20260509174900 | 8 | 147 | 4.8 | 6.4 | 0.00 | 0.03 | 0.03 | 94 | 1008.3 |
| 20260509174356 | 8 | 157 | 3.2 | 4.8 | 0.00 | 0.03 | 0.03 | 95 | 1008.0 |
| 20260509173852 | 8 | 136 | 4.8 | 6.4 | 0.00 | 0.03 | 0.03 | 95 | 1008.2 |
| 20260509173351 | 8 | 134 | 1.6 | 3.2 | 0.00 | 0.03 | 0.03 | 96 | 1008.2 |
| 20260509172848 | 8 | 169 | 3.2 | 4.8 | 0.00 | 0.03 | 0.03 | 96 | 1008.2 |
| 20260509172345 | 8 | 154 | 6.4 | 9.7 | 0.00 | 0.03 | 0.03 | 96 | 1008.3 |
| 20260509171841 | 8 | 123 | 4.8 | 6.4 | 0.00 | 0.03 | 0.03 | 96 | 1008.3 |
| 20260509171337 | 8 | 141 | 3.2 | 3.2 | 0.00 | 0.03 | 0.03 | 96 | 1008.4 |
| 20260509170834 | 8 | 126 | 4.8 | 4.8 | 0.00 | 0.03 | 0.03 | 96 | 1008.3 |
| 20260509170330 | 7 | 116 | 3.2 | 4.8 | 0.00 | 0.03 | 0.03 | 96 | 1008.4 |
| 20260509165830 | 8 | 182 | 3.2 | 4.8 | 0.00 | 0.03 | 0.03 | 96 | 1008.3 |
| 20260509165324 | 8 | 118 | 3.2 | 4.8 | 0.00 | 0.03 | 0.03 | 96 | 1008.5 |
| 20260509164820 | 8 | 154 | 3.2 | 3.2 | 0.00 | 0.03 | 0.03 | 96 | 1008.7 |
| 20260509164317 | 7 | 171 | 6.4 | 6.4 | 0.00 | 0.03 | 0.03 | 96 | 1008.7 |
| 20260509163813 | 7 | 121 | 3.2 | 4.8 | 0.00 | 0.03 | 0.03 | 96 | 1008.7 |
| 20260509163310 | 7 | 159 | 3.2 | 4.8 | 0.00 | 0.03 | 0.03 | 96 | 1008.8 |
| 20260509162809 | 7 | 154 | 0.0 | 1.6 | 0.00 | 0.03 | 0.03 | 96 | 1008.7 |
| 20260509162306 | 7 | 160 | 1.6 | 3.2 | 0.00 | 0.03 | 0.03 | 97 | 1008.7 |
| 20260509161759 | 7 | 163 | 3.2 | 3.2 | 0.00 | 0.03 | 0.03 | 97 | 1008.9 |
| 20260509161255 | 7 | 154 | 1.6 | 3.2 | 0.00 | 0.03 | 0.03 | 97 | 1008.9 |
| 20260509160750 | 7 | 124 | 6.4 | 6.4 | 0.00 | 0.03 | 0.03 | 97 | 1008.7 |
| 20260509160247 | 7 | 156 | 3.2 | 4.8 | 0.00 | 0.03 | 0.03 | 97 | 1009.1 |
| 20260509155742 | 7 | 126 | 1.6 | 3.2 | 0.00 | 0.03 | 0.03 | 96 | 1009.2 |
| 20260509155239 | 7 | 122 | 6.4 | 6.4 | 0.00 | 0.03 | 0.03 | 96 | 1009.1 |
| 20260509154735 | 7 | 142 | 3.2 | 4.8 | 0.00 | 0.03 | 0.03 | 96 | 1009.2 |
| 20260509154232 | 7 | 146 | 3.2 | 3.2 | 0.00 | 0.03 | 0.03 | 96 | 1009.2 |
| 20260509153730 | 7 | 163 | 3.2 | 4.8 | 0.00 | 0.03 | 0.03 | 96 | 1009.2 |
| 20260509153225 | 7 | 127 | 1.6 | 1.6 | 0.00 | 0.03 | 0.03 | 96 | 1009.6 |
| 20260509152722 | 7 | 120 | 3.2 | 4.8 | 0.00 | 0.03 | 0.03 | 96 | 1009.5 |
| 20260509152218 | 7 | 120 | 4.8 | 4.8 | 0.00 | 0.03 | 0.03 | 96 | 1009.4 |
| 20260509151715 | 7 | 151 | 3.2 | 6.4 | 0.00 | 0.03 | 0.03 | 96 | 1009.7 |
| 20260509151212 | 7 | 142 | 8.0 | 9.7 | 0.00 | 0.03 | 0.03 | 96 | 1009.7 |
| 20260509150710 | 7 | 139 | 4.8 | 6.4 | 0.00 | 0.03 | 0.03 | 96 | 1009.8 |
| 20260509150208 | 7 | 108 | 8.0 | 9.7 | 0.00 | 0.03 | 0.03 | 96 | 1009.6 |
| 20260509145704 | 7 | 112 | 4.8 | 6.4 | 0.00 | 0.03 | 0.03 | 96 | 1009.7 |
| 20260509145159 | 7 | 144 | 4.8 | 4.8 | 0.00 | 0.03 | 0.03 | 96 | 1009.6 |
| 20260509144656 | 7 | 100 | 1.6 | 3.2 | 0.00 | 0.03 | 0.03 | 96 | 1009.6 |
| 20260509144153 | 7 | 137 | 6.4 | 6.4 | 0.00 | 0.03 | 0.03 | 96 | 1009.8 |
| 20260509143650 | 7 | 129 | 1.6 | 3.2 | 0.00 | 0.03 | 0.03 | 96 | 1009.7 |
| 20260509143148 | 6 | 120 | 9.7 | 11.3 | 0.00 | 0.03 | 0.03 | 96 | 1009.7 |
| 20260509142643 | 6 | 125 | 3.2 | 3.2 | 0.00 | 0.03 | 0.03 | 96 | 1009.7 |
| 20260509142140 | 6 | 125 | 3.2 | 4.8 | 0.00 | 0.03 | 0.03 | 96 | 1009.7 |
| 20260509141636 | 6 | 157 | 6.4 | 6.4 | 0.00 | 0.03 | 0.03 | 95 | 1009.8 |
| 20260509141132 | 6 | 122 | 4.8 | 4.8 | 0.00 | 0.03 | 0.03 | 95 | 1009.9 |
| 20260509140629 | 6 | 108 | 6.4 | 9.7 | 0.00 | 0.03 | 0.03 | 95 | 1009.8 |
| 20260509140127 | 6 | 178 | 6.4 | 6.4 | 0.00 | 0.03 | 0.03 | 95 | 1009.7 |
| 20260509135624 | 6 | 119 | 3.2 | 4.8 | 0.00 | 0.03 | 0.03 | 95 | 1009.8 |
| 20260509135122 | 6 | 152 | 3.2 | 4.8 | 0.00 | 0.03 | 0.03 | 95 | 1009.8 |
| 20260509134618 | 6 | 139 | 3.2 | 4.8 | 0.00 | 0.03 | 0.03 | 95 | 1009.8 |
| 20260509134116 | 6 | 131 | 3.2 | 6.4 | 0.18 | 0.03 | 0.03 | 95 | 1009.7 |
| 20260509133613 | 6 | 140 | 3.2 | 4.8 | 0.18 | 0.03 | 0.03 | 94 | 1009.8 |
| 20260509133111 | 6 | 125 | 3.2 | 4.8 | 0.00 | 0.00 | 0.00 | 94 | 1009.7 |
| 20260509132609 | 6 | 132 | 8.0 | 11.3 | 0.00 | 0.00 | 0.00 | 94 | 1009.8 |
| 20260509132107 | 5 | 162 | 4.8 | 4.8 | 0.00 | 0.00 | 0.00 | 93 | 1009.8 |
| 20260509131602 | 5 | 168 | 4.8 | 4.8 | 0.00 | 0.00 | 0.00 | 93 | 1009.9 |
| 20260509131100 | 5 | 165 | 3.2 | 3.2 | 0.00 | 0.00 | 0.00 | 92 | 1009.8 |
| 20260509130555 | 5 | 142 | 4.8 | 4.8 | 0.00 | 0.00 | 0.00 | 92 | 1009.9 |
| 20260509130052 | 5 | 125 | 6.4 | 6.4 | 0.00 | 0.00 | 0.00 | 91 | 1010.0 |
| 20260509125548 | 5 | 161 | 1.6 | 3.2 | 0.00 | 0.00 | 0.00 | 90 | 1009.8 |
| 20260509125045 | 5 | 152 | 1.6 | 1.6 | 0.00 | 0.00 | 0.00 | 89 | 1009.9 |
| 20260509124542 | 5 | 133 | 3.2 | 3.2 | 0.00 | 0.00 | 0.00 | 87 | 1009.8 |
| 20260509124039 | 5 | 145 | 1.6 | 3.2 | 0.00 | 0.00 | 0.00 | 85 | 1010.0 |
| 20260509123537 | 6 | 135 | 3.2 | 3.2 | 0.00 | 0.00 | 0.00 | 84 | 1009.9 |
| 20260509123033 | 6 | 146 | 0.0 | 0.0 | 0.00 | 0.00 | 0.00 | 83 | 1010.1 |
| 20260509122529 | 6 | 168 | 3.2 | 4.8 | 0.00 | 0.00 | 0.00 | 82 | 1010.2 |
| 20260509122026 | 6 | 136 | 3.2 | 3.2 | 0.00 | 0.00 | 0.00 | 80 | 1010.4 |
| 20260509121523 | 6 | 157 | 3.2 | 4.8 | 0.00 | 0.00 | 0.00 | 79 | 1010.5 |
| 20260509121021 | 6 | 128 | 3.2 | 3.2 | 0.00 | 0.00 | 0.00 | 77 | 1010.4 |
| 20260509120519 | 6 | 125 | 3.2 | 3.2 | 0.00 | 0.00 | 0.00 | 77 | 1010.6 |
| 20260509120017 | 6 | 128 | 4.8 | 4.8 | 0.00 | 0.00 | 0.00 | 76 | 1010.5 |
| 20260509115513 | 6 | 131 | 3.2 | 3.2 | 0.00 | 0.00 | 0.00 | 76 | 1010.4 |
| 20260509115011 | 6 | 140 | 1.6 | 4.8 | 0.00 | 0.00 | 0.00 | 75 | 1010.0 |
| 20260509114509 | 6 | 161 | 1.6 | 3.2 | 0.00 | 0.00 | 0.00 | 77 | 1010.1 |
| 20260509114008 | 6 | 161 | 0.0 | 1.6 | 0.00 | 0.00 | 0.00 | 76 | 1010.2 |
| 20260509113506 | 6 | 144 | 3.2 | 3.2 | 0.00 | 0.00 | 0.00 | 76 | 1010.1 |
| 20260509113003 | 6 | 132 | 1.6 | 3.2 | 0.00 | 0.00 | 0.00 | 76 | 1010.3 |
| 20260509112459 | 5 | 127 | 3.2 | 4.8 | 0.00 | 0.00 | 0.00 | 75 | 1010.4 |
| 20260509111955 | 5 | 124 | 3.2 | 3.2 | 0.00 | 0.00 | 0.00 | 76 | 1010.4 |
| 20260509111454 | 5 | 131 | 1.6 | 3.2 | 0.00 | 0.00 | 0.00 | 76 | 1010.4 |
| 20260509110951 | 5 | 138 | 3.2 | 3.2 | 0.00 | 0.00 | 0.00 | 76 | 1010.3 |
| 20260509110447 | 5 | 133 | 3.2 | 3.2 | 0.00 | 0.00 | 0.00 | 77 | 1010.4 |
| 20260509105945 | 5 | 169 | 3.2 | 4.8 | 0.00 | 0.00 | 0.00 | 77 | 1010.4 |
| 20260509105443 | 5 | 159 | 1.6 | 3.2 | 0.00 | 0.00 | 0.00 | 77 | 1010.4 |
| 20260509104940 | 5 | 152 | 3.2 | 3.2 | 0.00 | 0.00 | 0.00 | 78 | 1010.6 |
| 20260509104437 | 5 | 159 | 1.6 | 3.2 | 0.00 | 0.00 | 0.00 | 78 | 1010.4 |
| 20260509103934 | 5 | 120 | 6.4 | 9.7 | 0.00 | 0.00 | 0.00 | 78 | 1010.3 |
| 20260509103431 | 5 | 157 | 1.6 | 1.6 | 0.00 | 0.00 | 0.00 | 79 | 1010.2 |
| 20260509102930 | 4 | 145 | 0.0 | 1.6 | 0.00 | 0.00 | 0.00 | 79 | 1010.4 |
| 20260509102427 | 4 | 161 | 0.0 | 0.0 | 0.00 | 0.00 | 0.00 | 79 | 1010.2 |
| 20260509101922 | 4 | 149 | 0.0 | 0.0 | 0.00 | 0.00 | 0.00 | 80 | 1010.1 |
| 20260509101419 | 4 | 158 | 1.6 | 1.6 | 0.00 | 0.00 | 0.00 | 80 | 1010.4 |
| 20260509100917 | 4 | 153 | 4.8 | 4.8 | 0.00 | 0.00 | 0.00 | 80 | 1010.1 |
| 20260509100414 | 3 | 165 | 3.2 | 3.2 | 0.00 | 0.00 | 0.00 | 80 | 1010.0 |
| 20260509095910 | 3 | 129 | 1.6 | 3.2 | 0.00 | 0.00 | 0.00 | 81 | 1009.9 |
| 20260509095408 | 3 | 133 | 1.6 | 1.6 | 0.00 | 0.00 | 0.00 | 81 | 1009.8 |
| 20260509094904 | 3 | 148 | 3.2 | 3.2 | 0.00 | 0.00 | 0.00 | 81 | 1010.0 |
| 20260509094400 | 3 | 151 | 1.6 | 3.2 | 0.00 | 0.00 | 0.00 | 82 | 1010.2 |
| 20260509093859 | 3 | 156 | 0.0 | 0.0 | 0.00 | 0.00 | 0.00 | 82 | 1010.0 |
| 20260509093355 | 3 | 150 | 1.6 | 1.6 | 0.00 | 0.00 | 0.00 | 82 | 1010.1 |
| 20260509092854 | 3 | 122 | 1.6 | 3.2 | 0.00 | 0.00 | 0.00 | 82 | 1010.2 |
| 20260509092351 | 3 | 163 | 1.6 | 1.6 | 0.00 | 0.00 | 0.00 | 82 | 1010.3 |
| 20260509091849 | 3 | 143 | 0.0 | 1.6 | 0.00 | 0.00 | 0.00 | 82 | 1010.2 |
| 20260509091346 | 3 | 145 | 1.6 | 1.6 | 0.00 | 0.00 | 0.00 | 83 | 1010.4 |
| 20260509090843 | 3 | 153 | 1.6 | 1.6 | 0.00 | 0.00 | 0.00 | 83 | 1010.5 |
| 20260509090341 | 3 | 155 | 1.6 | 1.6 | 0.00 | 0.00 | 0.00 | 83 | 1010.5 |
| 20260509085838 | 3 | 148 | 1.6 | 1.6 | 0.00 | 0.00 | 0.00 | 82 | 1010.2 |
| 20260509085335 | 3 | 158 | 1.6 | 1.6 | 0.00 | 0.00 | 0.00 | 83 | 1010.5 |
| 20260509084832 | 3 | 128 | 1.6 | 3.2 | 0.00 | 0.00 | 0.00 | 82 | 1010.6 |
| 20260509084328 | 3 | 148 | 3.2 | 3.2 | 0.00 | 0.00 | 0.00 | 83 | 1010.6 |
| 20260509083826 | 3 | 157 | 1.6 | 1.6 | 0.00 | 0.00 | 0.00 | 83 | 1010.7 |
| 20260509083323 | 3 | 116 | 1.6 | 3.2 | 0.00 | 0.00 | 0.00 | 83 | 1010.7 |
| 20260509082819 | 3 | 152 | 0.0 | 0.0 | 0.00 | 0.00 | 0.00 | 83 | 1010.7 |
| 20260509082316 | 3 | 159 | 1.6 | 1.6 | 0.00 | 0.00 | 0.00 | 83 | 1010.6 |
| 20260509081814 | 3 | 153 | 0.0 | 1.6 | 0.00 | 0.00 | 0.00 | 84 | 1010.8 |
| 20260509081311 | 3 | 137 | 1.6 | 1.6 | 0.00 | 0.00 | 0.00 | 84 | 1010.8 |
| 20260509080809 | 3 | 134 | 1.6 | 1.6 | 0.00 | 0.00 | 0.00 | 84 | 1010.8 |
| 20260509080306 | 3 | 132 | 1.6 | 1.6 | 0.00 | 0.00 | 0.00 | 84 | 1010.7 |
| 20260509075804 | 3 | 147 | 3.2 | 3.2 | 0.00 | 0.00 | 0.00 | 85 | 1010.7 |
| 20260509075301 | 3 | 142 | 1.6 | 1.6 | 0.00 | 0.00 | 0.00 | 85 | 1010.7 |
| 20260509074758 | 3 | 132 | 0.0 | 1.6 | 0.00 | 0.00 | 0.00 | 85 | 1010.6 |
| 20260509074256 | 3 | 150 | 0.0 | 1.6 | 0.00 | 0.00 | 0.00 | 84 | 1010.9 |
| 20260509073751 | 3 | 145 | 0.0 | 1.6 | 0.00 | 0.00 | 0.00 | 84 | 1010.8 |
| 20260509073248 | 3 | 150 | 0.0 | 0.0 | 0.00 | 0.00 | 0.00 | 85 | 1010.7 |
| 20260509072744 | 3 | 155 | 1.6 | 3.2 | 0.00 | 0.00 | 0.00 | 85 | 1010.6 |
| 20260509072242 | 3 | 129 | 0.0 | 1.6 | 0.00 | 0.00 | 0.00 | 87 | 1010.5 |